Regional Weather Roundup
Issued by NWS Charleston, SC

Current Version | Previous Version | Graphics & Text | Print | Product List | Glossary On
Versions: 1 2 3 4 5 6 7 8 9 10 11 12 13 14 15 16 17 18 19 20 21 22 23 24 25 26 27 28 29 30 31 32 33 34 35 36 37 38 39 40 41 42 43 44 45 46 47 48 49 50
000 ASUS42 KCHS 231812 RWRCHS REGIONAL WEATHER ROUNDUP NATIONAL WEATHER SERVICE CHARLESTON SC 200 PM EDT SUN JUL 23 2017 NOTE: "FAIR" INDICATES FEW OR NO CLOUDS BELOW 12,000 FEET WITH NO SIGNIFICANT WEATHER AND/OR OBSTRUCTIONS TO VISIBILITY. NOT ALL STATIONS ARE QUALITY CONTROLLED. USE DATA WITH CAUTION... ESPECIALLY DEWPOINT OBSERVATIONS. SCZ027-030-031-034>040-042>050-231900- ...SOUTHEAST SOUTH CAROLINA... CITY SKY/WX TMP DP RH WIND PRES REMARKS N CHARLESTON MOSUNNY 92 78 63 S12 29.93S HX 107 6HR MIN TEMP: 79; 6HR MAX TEMP: 93; WATERFRONT PRK N/A 86 80 82 S16 29.92F HX 101 JOHNS ISLAND FAIR 88 81 79 S16 29.95S HX 105 PINOPOLIS N/A 90 79 70 SW5 29.84F HX 105 MONCKS CORNER FAIR 91 73 55 SW6 29.92S HX 100 SUMMERVILLE MOCLDY 90 75 62 S7 29.93S HX 100 BEAUFORT MCAS MOSUNNY 93 78 61 MISG 29.94F HX 108 6HR MIN TEMP: 80; 6HR MAX TEMP: 93; BEAUFORT ARPT FAIR 90 79 70 S10 29.94F HX 105 HILTON HEAD IS MOSUNNY 88 81 79 S12G21 29.96F HX 105 WALTERBORO MOCLDY 91 73 55 SW12 29.93F HX 100 ALLENDALE NOT AVBL ...SOUTHERN MIDLANDS AND PEE DEE... CITY SKY/WX TMP DP RH WIND PRES REMARKS GEORGETOWN FAIR 91 77 62 S10 29.92F HX 105 KINGSTREE MOCLDY 90 75 62 S8 29.89F HX 100 ORANGEBURG MOSUNNY 92 75 57 SW13G18 29.90F HX 103 6HR MIN TEMP: 78; 6HR MAX TEMP: 92; BARNWELL FAIR 95 77 55 SW9 29.91F HX 109 AIKEN FAIR 90 72 55 SW10G16 29.94F HX 96 MANNING FAIR 91 70 49 W12 29.90F HX 97 COLUMBIA PTSUNNY 95 74 50 SW9 29.87F HX 105 6HR MIN TEMP: 80; 6HR MAX TEMP: 96; SUMTER MOSUNNY 94 74 52 SW12G17 29.86F HX 103 6HR MIN TEMP: 79; 6HR MAX TEMP: 94; FLORENCE MOSUNNY 93 76 57 SW12 29.88F HX 105 6HR MIN TEMP: 79; 6HR MAX TEMP: 93; MYRTLE BEACH MOSUNNY 90 79 70 S17 29.91F HX 105 N MYRTLE BEACH SUNNY 88 79 74 S16 29.90F HX 103 6HR MIN TEMP: 81; 6HR MAX TEMP: 89; $$ GAZ063-065-086>088-099>101-113>116-118-119-134>141-150-231900- ...SOUTHEAST GEORGIA... CITY SKY/WX TMP DP RH WIND PRES REMARKS SAVANNAH ARPT PTSUNNY 92 74 55 S12 29.94F HX 101 6HR MIN TEMP: 79; 6HR MAX TEMP: 92; HUNTER AAF MOSUNNY 91 77 64 S9 29.93F HX 104 6HR MIN TEMP: 78; 6HR MAX TEMP: 92; FORT STEWART CLOUDY 90 74 60 SW8 29.93F HX 99 6HR MIN TEMP: 79; 6HR MAX TEMP: 90; STATESBORO MOSUNNY 93 76 58 S7 29.93F HX 105 SYLVANIA PTCLDY 92 79 66 SW6 29.93F HX 108 CLAXTON FAIR 92 76 58 SW6 29.93F HX 104 ...CSRA...CENTRAL AND FAR SOUTHEAST GEORGIA... CITY SKY/WX TMP DP RH WIND PRES REMARKS THOMSON MOSUNNY 92 74 54 NW6 29.96F HX 101 AUGUSTA-BUSH MOSUNNY 94 76 55 S9 29.89F HX 106 6HR MIN TEMP: 81; 6HR MAX TEMP: 95; AUGUSTA-DANIEL MOSUNNY 95 69 42 SW8 29.91F HX 100 SWAINSBORO FAIR 86 77 74 S9 29.95F HX 97 VIDALIA MOSUNNY 91 75 59 SW6 29.94F HX 102 EASTMAN MOCLDY 92 61 34 SW8 29.97F HX 92 HAZLEHURST FAIR 90 78 66 SW8 29.95F HX 103 ALMA MOSUNNY 90 74 59 W6 29.97F HX 99 6HR MIN TEMP: 79; 6HR MAX TEMP: 91; WAYCROSS RAIN 81 81 100 S6 29.99S HX 93 JESUP NOT AVBL BAXLEY FAIR 91 77 62 CALM 29.96S HX 105 BRUNSWICK TSTM 81 77 89 CALM 30.00S SAINT SIMONS PTSUNNY 85 77 77 SE13G21 29.99S THUNDER HX 95 6HR MIN TEMP: 78; 6HR MAX TEMP: 90; $$ SCZ027-028-034-036>038-045-046-048>050-GAZ119-141-231900- ...LAKE AND SUPPLEMENTAL COASTAL OBSERVATIONS... STATION/POSITION TIME TEMP WIND PRES WAVE SWELL AIR SEA DIR/SP/G HT/PER HT/PER/DIR (UTC) (F) (DEG/KT/KT) (MB) (FT/S) (FT/S/D) WINYAH BAY 1645 89 230/ 8 1013.0 LAKE MURRAY 1720 90 200/ 6/ 10 1011.2 ACE BASIN NERRS NOT AVBL FORT PULASKI 1748 87 86 180/ 7/ 13 1014.8F SAPELO ISLAND 1700 90 210/ 4 1015.0 $$ ANZ835-935-AMZ111-154-330-350-352-354-370-450-454-472-231900- ...C-MAN AND BUOY OBSERVATIONS... STATION/POSITION TIME TEMP WIND PRES WAVE SWELL AIR SEA DIR/SP/G HT/PER HT/PER/DIR (UTC) (F) (DEG/KT/KT) (MB) (FT/S) (FT/S/D) BUOY 41004 1750 82 84 210/ 16/ 19 1014.5F 4/ 6 2/120/ 9 BUOY 41008 1650 80 82 200/ 12/ 14 1015.9 2/ 9 2/140/ 9 FOLLY BEACH CMAN 1700 84 210/ 14/ 17 1014.9S CAPERS NEARSHORE 1708 81 85 220/ 16/ 21 1013.9F FRIPP NEARSHORE 1708 83 85 210/ 16/ 19 1014.5R STATION/POSITION TIME TEMP WIND PRES WAVE SWELL AIR SEA DIR/SP/G HT/PER HT/PER/DIR (UTC) (F) (DEG/KT/KT) (MB) (FT/S) (FT/S/D) 5E ST. MARYS GA 1730 81 N/A 3/11 FRYING PAN BUOY 1750 83 83 220/ 17/ 19 1013.6F 4/ 6 2/160/ 9 BUOY 41025 1750 84 84 230/ 21/ 25 1012.0F 7/ 7 2/170/10 CAPE LOOKOUT NC 1700 85 220/ 11/ 14 1012.6F BUOY 41002 1650 82 84 230/ 16/ 17 1017.3 5/ 6 2/100/ 9 BUOY 41010 1750 83 85 150/ 10/ 12 1018.5S 3/10 2/110/10 ST AUGUSTINE FL 1800 75 76 210/ 7/ 8 1017.9F $$

USA.gov is the U.S. government's official web portal to all federal, state and local government web resources and services.